385  
FPUS82 KCHS 170026  
OPUCHS  
 
TEST   
..KCHS/KSAV GATEWAY OBSERVATIONS
 
TEST  
NATIONAL WEATHER SERVICE CHARLESTON SC  
700 PM EST WED JAN 16 2019  
 
NOTE: "FAIR" INDICATES FEW OR NO CLOUDS BELOW 12,000 FEET WITH NO  
SIGNIFICANT WEATHER AND/OR OBSTRUCTIONS TO VISIBILITY.  
 
SCZ050-WAZ558-NCZ071-TXZ119-213-PAZ071-DCZ001-FLZ074-172-MI076-  
NYZ176-178-MAZ016-IL014-TNZ027-NJZ106-GAZ044-MD014-170100-  
   
..GATEWAY OBSERVATIONS FOR CHARLESTON INTERNATIONAL
 
 
 
CITY SKY/WX TMP DP RH WIND PRES REMARKS  
CHAS AIRPORT FAIR 45 38 76 SW7 30.23R  
6HR MIN TEMP: 45; 6HR MAX TEMP: 60;  
 
SEATTLE CLOUDY 53 31 42 E13 29.68F  
6HR MIN TEMP: 41; 6HR MAX TEMP: 55;  
 
CHARLOTTE FAIR 48 31 51 S6 30.21R  
6HR MIN TEMP: 48; 6HR MAX TEMP: 57;  
 
DALLAS DFW MOCLDY 57 52 83 S16 30.04R  
6HR MIN TEMP: 53; 6HR MAX TEMP: 64;  
 
DALLAS LOVE MOCLDY 58 53 84 S17 30.06S  
6HR MIN TEMP: 55; 6HR MAX TEMP: 63;  
 
PHILLADELPHIA CLOUDY 39 21 48 W12 30.20R WCI 32  
6HR MIN TEMP: 37; 6HR MAX TEMP: 39;  
 
WASH NATIONAL FAIR 41 25 53 NW13G20 30.24R  
6HR MIN TEMP: 41; 6HR MAX TEMP: 44;  
 
BALTIMORE CLOUDY 38 27 64 W7 30.22R WCI 33  
6HR MIN TEMP: 37; 6HR MAX TEMP: 39;  
 
MIAMI FAIR 66 52 60 NW6 30.17R  
6HR MIN TEMP: 66; 6HR MAX TEMP: 73;  
 
DETROIT MOCLDY 25 12 58 N7 30.30R WCI 17  
6HR MIN TEMP: 25; 6HR MAX TEMP: 32;  
 
NEWARK MOCLDY 38 20 48 W12 30.12R WCI 30  
6HR MIN TEMP: 37; 6HR MAX TEMP: 39;  
 
LAGUARDIA MOCLDY 40 20 44 W15G25 30.10R WCI 32  
6HR MIN TEMP: 37; 6HR MAX TEMP: 40;  
 
J F K MOCLDY 38 24 57 W15 30.13R WCI 29  
6HR MIN TEMP: 36; 6HR MAX TEMP: 39;  
 
BOSTON LOGAN FAIR 37 19 48 SW12 30.00R WCI 29  
6HR MIN TEMP: 37; 6HR MAX TEMP: 41;  
 
FT. LAUDERDALE FAIR 65 58 78 N6 30.16R  
6HR MIN TEMP: 65; 6HR MAX TEMP: 74;  
 
CHICAGO O'HARE CLOUDY 29 20 69 E8 30.27R WCI 21  
6HR MIN TEMP: 29; 6HR MAX TEMP: 34;  
 
CHICAGO MIDWAY CLOUDY 30 21 69 NE8 30.28R WCI 22  
6HR MIN TEMP: 30; 6HR MAX TEMP: 35;  
 
HOUSTON BUSH LGT RAIN 57 57 100 SE10 30.19 FOG  
6HR MIN TEMP: 57; 6HR MAX TEMP: 62; 6HR PCP: 0.03;  
 
HOUSTON HOBBY CLOUDY 58 56 93 SE7 30.19S FOG  
6HR MIN TEMP: 58; 6HR MAX TEMP: 61; 6HR PCP: 0.07;  
 
NASHVILLE CLOUDY 46 35 65 S5 30.25R  
6HR MIN TEMP: 43; 6HR MAX TEMP: 47;  
 
ATLANTA FAIR 47 30 51 N6 30.25R  
6HR MIN TEMP: 47; 6HR MAX TEMP: 53;  
 

 
 
GAZ044-118-TXZ119-213-NCZ071-DCZ001-MDZ014-506-PAZ021-071-NJZ106-  
NYZ176-178-MAZ106-OHZ011-021-055-MIZ076-KYZ091-ILZ014-INZ047-  
MNZ060-ONZ431-170100-  
   
..GATEWAY OBSERVATIONS FOR SAVANNAH INTERNATIONAL
 
 
 
CITY SKY/WX TMP DP RH WIND PRES REMARKS  
SAVANNAH ARPT FAIR 47 36 65 CALM 30.24R  
6HR MIN TEMP: 47; 6HR MAX TEMP: 60;  
 
ATLANTA FAIR 47 30 51 N6 30.25R  
6HR MIN TEMP: 47; 6HR MAX TEMP: 53;  
 
CHARLOTTE FAIR 48 31 51 S6 30.21R  
6HR MIN TEMP: 48; 6HR MAX TEMP: 57;  
 
DALLAS DFW MOCLDY 57 52 83 S16 30.04R  
6HR MIN TEMP: 53; 6HR MAX TEMP: 64;  
 
HOUSTON BUSH LGT RAIN 57 57 100 SE10 30.19 FOG  
6HR MIN TEMP: 57; 6HR MAX TEMP: 62; 6HR PCP: 0.03;  
 
WASH NATIONAL FAIR 41 25 53 NW13G20 30.24R  
6HR MIN TEMP: 41; 6HR MAX TEMP: 44;  
 
WASH DULLES MOCLDY 38 27 64 NW8 30.23R WCI 32  
6HR MIN TEMP: 38; 6HR MAX TEMP: 41;  
 
BALTIMORE CLOUDY 38 27 64 W7 30.22R WCI 33  
6HR MIN TEMP: 37; 6HR MAX TEMP: 39;  
 
PHILADELPHIA CLOUDY 39 21 48 W12 30.20R WCI 32  
6HR MIN TEMP: 37; 6HR MAX TEMP: 39;  
 
NEWARK MOCLDY 38 20 48 W12 30.12R WCI 30  
6HR MIN TEMP: 37; 6HR MAX TEMP: 39;  
 
LAGUARDIA MOCLDY 40 20 44 W15G25 30.10R WCI 32  
6HR MIN TEMP: 37; 6HR MAX TEMP: 40;  
 
J F K MOCLDY 38 24 57 W15 30.13R WCI 29  
6HR MIN TEMP: 36; 6HR MAX TEMP: 39;  
 
BOSTON FAIR 37 19 48 SW12 30.00R WCI 29  
6HR MIN TEMP: 37; 6HR MAX TEMP: 41;  
 
PITTSBURG CLOUDY 31 26 82 SW8 30.23R WCI 23  
6HR MIN TEMP: 30; 6HR MAX TEMP: 31;  
 
AKRON CLOUDY 28 21 75 NE10 30.25R WCI 19  
6HR MIN TEMP: 28; 6HR MAX TEMP: 33;  
 
CLEVELAND CLOUDY 28 19 69 NE10 30.30R WCI 19  
6HR MIN TEMP: 28; 6HR MAX TEMP: 34;  
 
CINCINNATI CLOUDY 34 28 79 NE6 30.26R WCI 29  
6HR MIN TEMP: 34; 6HR MAX TEMP: 35; 6HR PCP: TRACE;  
 
COLUMBUS CLOUDY 32 28 83 SW6 30.28R WCI 26  
DETROIT MOCLDY 25 12 58 N7 30.30R WCI 17  
6HR MIN TEMP: 25; 6HR MAX TEMP: 32;  
 
CHICAGO O'HARE CLOUDY 29 20 69 E8 30.27R WCI 21  
6HR MIN TEMP: 29; 6HR MAX TEMP: 34;  
 
MINNEAPOLIS FAIR 20 6 55 NE5 30.25F WCI 13  
6HR MIN TEMP: 16; 6HR MAX TEMP: 21;  
 
INDIANAPOLIS CLOUDY 34 27 75 E6 30.25R WCI 29  
6HR MIN TEMP: 34; 6HR MAX TEMP: 35; 6HR PCP: TRACE;  
 
TORONTO CANADA PTCLDY 16 1 53 NW12 30.29R WCI 3  
 

 
 
 
CLICK HERE TO GO TO PREVIOUS BULLETINS.

The Nexlab SC Page
The Nexlab GA Page Main Text Page